Location: Doussal
(55.6167°N, 116.8333°W)
Time: 05:10:03
(UTC+00:00)

METEOR M2 - Pass Details

Date: 17 December 2023
Orbit: 818 x 826 km, 98.4° (Epoch: 25 February)

Event Time Altitude Azimuth Distance (km) Brightness Sun altitude
Rises 12:41:07 0° 21° (NNE) 3,371 ? -27.8°
Reaches altitude 10° 12:43:54 10° 35° (NE) 2,432 ? -27.4°
Maximum altitude 12:48:20 26° 90° (E) 1,581 ? -26.8°
Drops below altitude 10° 12:52:45 10° 146° (SSE) 2,414 ? -26.1°
Sets 12:55:29 0° 159° (SSE) 3,341 ? -25.8°
